Flag for Switzerland Weather past 2 weeks in Bellinzona, Ticino, Switzerland

Now
67 °F

Mild.


Feels Like: 67 °F
Forecast: 63 / 88 °F
Wind: 1 mph from North

Location: Locarno-Magadino

Current Time: Aug 30, 2015 at 2:25:11 AM

Latest Report: Aug 30, 2015 at 1:00 AM


Visibility: N/A

Pressure: 30.22 "Hg

Humidity: 96%

Dew point: 65 °F

Location of BellinzonaLocation

Historic Weather in Bellinzona — Graph

°F

Bellinzona temperature yesterday

Maximum temperature yesterday: 87 °F (at 5:00 PM)
Minimum temperature yesterday: 62 °F (at 7:00 AM)
Average temperature yesterday: 75 °F

Past Weeks' High & Low Weather Summary

 TemperatureHumidityPressure
High87 °F (Aug 29, 5:00 PM)98% (Aug 15, 1:00 AM)30.22 "Hg (Aug 15, 1:00 AM)
Low52 °F (Aug 20, 7:00 AM)39% (Aug 20, 3:00 PM)29.73 "Hg (Aug 16, 7:00 PM)
Average68 °F78%29.98 "Hg
* Reported Aug 15 1:00 AM — Aug 30 1:00 AM, Bellinzona, Weather by CustomWeather, © 2015

Note: Actual official high and low records may vary slightly from our data, if they occured in-between our weather recording intervals... More about our weather records

Advertising

Bellinzona weather history for previous 24 hours

 ConditionsComfort  
Time TempWeatherWind HumidityBarometerVisibility
1:00 AM
Sun, Aug 30
67 °FMild.1 mph96%30.22 "HgN/A
12:00 AM66 °FMild.1 mph95%30.22 "HgN/A
10:00 PM
Sat, Aug 29
70 °FMild.1 mph91%30.19 "HgN/A
9:00 PM74 °FMild.1 mph82%30.16 "HgN/A
7:00 PM83 °FWarm.6 mph58%30.11 "HgN/A
6:00 PM85 °FWarm.7 mph57%30.12 "HgN/A
5:00 PM87 °FWarm.7 mph51%30.12 "HgN/A
4:00 PM86 °FWarm.9 mph52%30.12 "HgN/A
3:00 PM85 °FWarm.8 mph51%30.14 "HgN/A
1:00 PM83 °FWarm.7 mph54%30.17 "HgN/A
12:00 PM81 °FWarm.2 mph61%30.19 "HgN/A
10:00 AM74 °FMild.2 mph72%30.22 "HgN/A
9:00 AM70 °FMild.2 mph83%30.22 "HgN/A
7:00 AM62 °FCool.1 mph97%30.22 "HgN/A
4:00 AM66 °FMild.1 mph93%30.21 "HgN/A
3:00 AM65 °FMild.1 mph96%30.21 "HgN/A
2:00 AM65 °FMild.1 mph96%30.21 "HgN/A
Weather by CustomWeather, © 2015

See weather overviewHow to use our weather pages